When you browse on this site, cookies collect data to enhance your experience and personalize the content and advertising you see.
Visit our Privacy Policy to learn more. By continuing to use the site, you agree to this use of cookies and data.
  • In Germany
  • List of Countries
  • For 7 days
  • Water Temperature
  • Weather Map
  • Weather Widgets
  • user-avatar
    Login

    Hourly Weather Encamp

    Today, 25 August, Sunday

    Time Temperature Precipitation Wind Pressure Humidity
    00:00 +13°C° 0 mm 1 mps 627 mmHg 73%
    01:00 +13°C° 0 mm 1 mps 627 mmHg 71%
    02:00 +13°C° 0 mm 1 mps 626 mmHg 69%
    03:00 +13°C° 0 mm 2 mps 626 mmHg 67%
    04:00 +13°C° 0 mm 1 mps 626 mmHg 66%
    05:00 +13°C° 0 mm 1 mps 626 mmHg 65%
    06:00 +13°C° 0 mm 1 mps 626 mmHg 65%
    07:00 +16°C° 0 mm 1 mps 628 mmHg 56%
    08:00 +20°C° 0 mm 1 mps 629 mmHg 48%
    09:00 +23°C° 0 mm 1 mps 630 mmHg 40%
    10:00 +23°C° 0 mm 1 mps 630 mmHg 39%
    11:00 +24°C° 0 mm 1 mps 630 mmHg 38%
    12:00 +24°C° 0 mm 2 mps 630 mmHg 37%
    13:00 +24°C° 0 mm 2 mps 630 mmHg 39%
    14:00 +24°C° 0 mm 1 mps 629 mmHg 42%
    15:00 +23°C° 0 mm 1 mps 629 mmHg 45%
    16:00 +22°C° 0 mm 1 mps 628 mmHg 53%
    17:00 +20°C° 0 mm 1 mps 627 mmHg 60%
    18:00 +19°C° 0 mm 1 mps 627 mmHg 68%
    19:00 +18°C° 0 mm 1 mps 627 mmHg 71%
    20:00 +15°C° 0 mm 1 mps 626 mmHg 74%
    21:00 +14°C° 0 mm 1 mps 626 mmHg 78%
    22:00 +14°C° 0 mm 1 mps 626 mmHg 79%
    23:00 +14°C° 0 mm 1 mps 626 mmHg 81%

    Tomorrow, 26 August, Monday

    Time Temperature Precipitation Wind Pressure Humidity
    00:00 +13°C° 0 mm 1 mps 626 mmHg 83%
    01:00 +13°C° 0 mm 1 mps 626 mmHg 82%
    02:00 +13°C° 0 mm 1 mps 625 mmHg 81%
    03:00 +13°C° 0 mm 1 mps 625 mmHg 80%
    04:00 +13°C° 0 mm 1 mps 625 mmHg 79%
    05:00 +13°C° 0 mm 1 mps 625 mmHg 77%
    06:00 +13°C° 0 mm 1 mps 625 mmHg 76%
    07:00 +16°C° 0 mm 1 mps 626 mmHg 65%
    08:00 +19°C° 0 mm 1 mps 627 mmHg 54%
    09:00 +22°C° 0 mm 1 mps 628 mmHg 42%
    10:00 +21°C° 0 mm 2 mps 629 mmHg 39%
    11:00 +23°C° 0 mm 2 mps 629 mmHg 35%
    12:00 +24°C° 0 mm 2 mps 629 mmHg 31%
    13:00 +24°C° 0 mm 2 mps 628 mmHg 32%
    14:00 +24°C° 0 mm 2 mps 628 mmHg 33%
    15:00 +24°C° 0 mm 3 mps 628 mmHg 34%
    16:00 +21°C° 0 mm 2 mps 627 mmHg 42%
    17:00 +19°C° 0 mm 2 mps 626 mmHg 50%
    18:00 +17°C° 0 mm 2 mps 626 mmHg 58%
    19:00 +16°C° 0 mm 2 mps 625 mmHg 62%
    20:00 +15°C° 0 mm 1 mps 625 mmHg 67%
    21:00 +13°C° 0 mm 1 mps 625 mmHg 72%
    22:00 +13°C° 0 mm 1 mps 625 mmHg 71%
    23:00 +13°C° 0 mm 1 mps 625 mmHg 71%

    Day after tomorrow, 27 August, Tuesday

    Time Temperature Precipitation Wind Pressure Humidity
    00:00 +13°C° 0 mm 1 mps 625 mmHg 71%
    01:00 +13°C° 0 mm 1 mps 625 mmHg 70%
    02:00 +13°C° 0 mm 1 mps 625 mmHg 70%
    03:00 +13°C° 0 mm 1 mps 625 mmHg 69%
    04:00 +13°C° 0 mm 1 mps 625 mmHg 68%
    05:00 +13°C° 0 mm 1 mps 625 mmHg 66%
    06:00 +13°C° 0 mm 1 mps 625 mmHg 65%
    07:00 +15°C° 0 mm 1 mps 626 mmHg 63%
    08:00 +16°C° 0 mm 2 mps 627 mmHg 60%
    09:00 +17°C° 0 mm 2 mps 627 mmHg 58%
    10:00 +18°C° 0.2 mm 1 mps 627 mmHg 60%
    11:00 +18°C° 0.2 mm 1 mps 627 mmHg 62%
    12:00 +18°C° 0.2 mm 1 mps 627 mmHg 64%
    13:00 +18°C° 0 mm 1 mps 627 mmHg 66%
    14:00 +18°C° 0 mm 1 mps 626 mmHg 67%
    15:00 +16°C° 0 mm 1 mps 626 mmHg 69%
    16:00 +16°C° 0 mm 1 mps 626 mmHg 72%
    17:00 +15°C° 0 mm 1 mps 625 mmHg 74%
    18:00 +14°C° 0 mm 0 mps 625 mmHg 77%
    19:00 +14°C° 0 mm 1 mps 625 mmHg 79%
    20:00 +13°C° 0 mm 1 mps 625 mmHg 81%
    21:00 +12°C° 0 mm 1 mps 625 mmHg 83%
    22:00 +12°C° 0 mm 1 mps 625 mmHg 82%
    23:00 +11°C° 0 mm 1 mps 625 mmHg 81%

    28 August, Wednesday

    Time Temperature Precipitation Wind Pressure Humidity
    00:00 +11°C° 0 mm 1 mps 625 mmHg 81%
    01:00 +11°C° 0 mm 1 mps 625 mmHg 81%
    02:00 +11°C° 0 mm 1 mps 625 mmHg 82%
    03:00 +11°C° 0 mm 1 mps 624 mmHg 83%
    04:00 +11°C° 0 mm 1 mps 624 mmHg 82%
    05:00 +11°C° 0 mm 1 mps 625 mmHg 81%
    06:00 +11°C° 0 mm 1 mps 625 mmHg 80%
    07:00 +14°C° 0 mm 1 mps 626 mmHg 70%
    08:00 +18°C° 0 mm 1 mps 627 mmHg 60%
    09:00 +21°C° 0 mm 1 mps 628 mmHg 50%
    10:00 +21°C° 0.1 mm 1 mps 628 mmHg 52%
    11:00 +20°C° 0.1 mm 2 mps 628 mmHg 53%
    12:00 +20°C° 0.1 mm 2 mps 628 mmHg 55%
    13:00 +19°C° 0.5 mm 2 mps 627 mmHg 62%
    14:00 +20°C° 0.5 mm 1 mps 627 mmHg 68%
    15:00 +19°C° 0.5 mm 1 mps 627 mmHg 75%
    16:00 +18°C° 0.7 mm 1 mps 626 mmHg 79%
    17:00 +16°C° 0.7 mm 1 mps 626 mmHg 83%
    18:00 +14°C° 0.7 mm 0 mps 626 mmHg 87%
    19:00 +15°C° 0.2 mm 1 mps 626 mmHg 89%
    20:00 +14°C° 0.2 mm 1 mps 626 mmHg 90%
    21:00 +14°C° 0.2 mm 1 mps 626 mmHg 91%
    22:00 +13°C° 0 mm 1 mps 626 mmHg 91%
    23:00 +13°C° 0 mm 1 mps 626 mmHg 91%

    29 August, Thursday

    Time Temperature Precipitation Wind Pressure Humidity
    00:00 +12°C° 0 mm 1 mps 626 mmHg 91%
    01:00 +12°C° 0 mm 1 mps 626 mmHg 90%
    02:00 +12°C° 0 mm 1 mps 626 mmHg 89%
    03:00 +12°C° 0 mm 1 mps 626 mmHg 88%
    04:00 +12°C° 0 mm 1 mps 626 mmHg 87%
    05:00 +12°C° 0 mm 1 mps 626 mmHg 86%
    06:00 +12°C° 0 mm 1 mps 626 mmHg 85%
    07:00 +15°C° 0 mm 1 mps 628 mmHg 78%
    08:00 +18°C° 0 mm 1 mps 629 mmHg 71%
    09:00 +20°C° 0 mm 1 mps 630 mmHg 63%
    10:00 +21°C° 0.3 mm 1 mps 630 mmHg 63%
    11:00 +21°C° 0.3 mm 1 mps 630 mmHg 62%
    12:00 +21°C° 0.3 mm 2 mps 630 mmHg 61%
    13:00 +21°C° 1.3 mm 1 mps 630 mmHg 65%
    14:00 +21°C° 1.3 mm 1 mps 629 mmHg 69%
    15:00 +18°C° 1.3 mm 0 mps 629 mmHg 73%
    16:00 +17°C° 0.8 mm 0 mps 628 mmHg 77%
    17:00 +16°C° 0.8 mm 0 mps 628 mmHg 82%
    18:00 +15°C° 0.8 mm 0 mps 627 mmHg 86%
    19:00 +15°C° 0.3 mm 1 mps 627 mmHg 87%
    20:00 +14°C° 0.3 mm 1 mps 627 mmHg 87%
    21:00 +14°C° 0.3 mm 1 mps 627 mmHg 87%
    22:00 +13°C° 0.1 mm 1 mps 627 mmHg 86%
    23:00 +13°C° 0.1 mm 1 mps 627 mmHg 85%

    30 August, Friday

    Time Temperature Precipitation Wind Pressure Humidity
    00:00 +13°C° 0.1 mm 1 mps 627 mmHg 84%
    01:00 +12°C° 0.2 mm 1 mps 627 mmHg 84%
    02:00 +12°C° 0.2 mm 1 mps 627 mmHg 85%
    03:00 +12°C° 0.2 mm 1 mps 627 mmHg 85%
    04:00 +12°C° 0.1 mm 1 mps 627 mmHg 85%
    05:00 +13°C° 0.1 mm 1 mps 627 mmHg 85%
    06:00 +13°C° 0.1 mm 1 mps 627 mmHg 86%
    07:00 +15°C° 0.4 mm 1 mps 628 mmHg 81%
    08:00 +18°C° 0.4 mm 1 mps 629 mmHg 76%
    09:00 +20°C° 0.4 mm 1 mps 630 mmHg 71%
    10:00 +20°C° 1.4 mm 1 mps 630 mmHg 69%
    11:00 +21°C° 1.4 mm 1 mps 630 mmHg 68%
    12:00 +21°C° 1.4 mm 1 mps 629 mmHg 66%
    13:00 +21°C° 1.6 mm 1 mps 629 mmHg 66%
    14:00 +21°C° 1.6 mm 1 mps 629 mmHg 65%
    15:00 +21°C° 1.6 mm 1 mps 628 mmHg 64%
    16:00 +20°C° 1.7 mm 1 mps 627 mmHg 72%
    17:00 +18°C° 1.7 mm 1 mps 627 mmHg 81%
    18:00 +15°C° 1.7 mm 1 mps 626 mmHg 89%
    19:00 +14°C° 1.1 mm 1 mps 626 mmHg 89%
    20:00 +13°C° 1.1 mm 1 mps 626 mmHg 90%
    21:00 +13°C° 1.1 mm 2 mps 626 mmHg 90%
    22:00 +13°C° 0 mm 2 mps 625 mmHg 87%
    23:00 +13°C° 0 mm 1 mps 625 mmHg 84%
    Show more